DW2004 Weather Reports


Display with metric or nautical units.
time (UTC)temp
F
wind
direction
speed
MPH
gust
MPH
rain 1hr
in
rain 24hr
in
rain mn
in
humidity
%
barometer
mb
20260904092006 80 172 1.0 5.0 0.00 0.00 0.00 80 1013.3
20260904091504 80 171 1.0 4.0 0.00 0.00 0.00 80 1013.3
20260904091000 80 171 0.0 2.0 0.00 0.00 0.00 80 1013.3
20260904090501 80 171 0.0 6.0 0.00 0.00 0.00 80 1013.3
20260904085501 80 171 0.0 3.0 0.00 0.00 0.00 80 1013.3
20260904085000 80 171 0.0 4.0 0.00 0.00 0.00 79 1013.3
20260904084504 80 171 0.0 4.0 0.00 0.00 0.00 79 1013.3
20260904084000 80 171 1.0 4.0 0.00 0.00 0.00 79 1013.3
20260904083004 80 171 0.0 5.0 0.00 0.00 0.00 79 1013.2
20260904082500 80 167 1.0 6.0 0.00 0.00 0.00 79 1013.2
20260904082002 81 167 1.0 6.0 0.00 0.00 0.00 78 1013.2
20260904081505 81 164 0.0 3.0 0.00 0.00 0.00 78 1013.3
20260904080501 81 164 0.0 3.0 0.00 0.00 0.00 78 1013.3
20260904080006 81 165 0.0 7.0 0.00 0.00 0.00 78 1013.2
20260904075501 80 202 1.0 7.0 0.00 0.00 0.00 78 1013.0
20260904075001 81 120 2.0 6.0 0.00 0.00 0.00 77 1013.1
20260904074504 81 119 1.0 6.0 0.00 0.00 0.00 77 1013.2
20260904073500 81 142 0.0 3.0 0.00 0.00 0.00 77 1013.3
20260904073004 81 142 0.0 5.0 0.00 0.00 0.00 76 1013.3
20260904072501 81 142 1.0 5.0 0.00 0.00 0.00 76 1013.2
20260904072000 81 145 0.0 4.0 0.00 0.00 0.00 76 1013.3
20260904071002 81 145 2.0 7.0 0.00 0.00 0.00 75 1013.4
20260904070006 81 165 1.0 8.0 0.00 0.00 0.00 75 1013.4
20260904065500 81 159 3.0 8.0 0.00 0.00 0.00 75 1013.4
20260904064959 81 179 2.0 7.0 0.00 0.00 0.00 74 1013.4
20260904064503 81 177 1.0 6.0 0.00 0.00 0.00 74 1013.5
20260904063459 81 234 3.0 8.0 0.00 0.00 0.00 73 1013.5
20260904063003 81 164 1.0 6.0 0.00 0.00 0.00 72 1013.5
20260904062501 81 164 1.0 6.0 0.00 0.00 0.00 72 1013.6
20260904061959 81 162 0.0 6.0 0.00 0.00 0.00 71 1013.5
20260904061505 81 161 1.0 6.0 0.00 0.00 0.00 71 1013.6
20260904061000 81 153 0.0 8.0 0.00 0.00 0.00 70 1013.7
20260904060459 81 153 2.0 8.0 0.00 0.00 0.00 70 1013.7
20260904060011 81 103 1.0 5.0 0.00 0.00 0.00 70 1013.6
20260904055505 81 128 0.0 4.0 0.00 0.00 0.00 69 1013.7
20260904055005 82 128 1.0 4.0 0.00 0.00 0.00 69 1013.7
20260904054509 82 126 0.0 4.0 0.00 0.00 0.00 68 1013.7
20260904054006 82 126 0.0 6.0 0.00 0.00 0.00 68 1013.6
20260904053505 82 153 2.0 7.0 0.00 0.00 0.00 67 1013.6
20260904053008 82 145 2.0 7.0 0.00 0.00 0.00 67 1013.6
20260904051005 82 134 0.0 5.0 0.00 0.00 0.00 66 1013.3
20260904050505 83 134 1.0 5.0 0.00 0.00 0.00 66 1013.4
20260904050013 83 134 1.0 7.0 0.00 0.00 0.00 65 1013.3
20260904045505 83 134 1.0 7.0 0.00 0.00 0.00 65 1013.3
20260904045008 83 146 1.0 4.0 0.00 0.00 0.00 65 1013.3
20260904044509 83 152 1.0 9.0 0.00 0.00 0.00 65 1013.3
20260904044005 83 207 3.0 9.0 0.00 0.00 0.00 65 1013.3
20260904043505 83 138 0.0 5.0 0.00 0.00 0.00 66 1013.4
20260904043009 83 137 1.0 5.0 0.00 0.00 0.00 65 1013.4
20260904042505 83 136 0.0 5.0 0.00 0.00 0.00 64 1013.3
20260904042005 84 135 0.0 6.0 0.00 0.00 0.00 64 1013.4
20260904041509 84 107 1.0 9.0 0.00 0.00 0.00 63 1013.3
20260904041006 84 132 2.0 9.0 0.00 0.00 0.00 63 1013.3
20260904040505 84 101 1.0 6.0 0.00 0.00 0.00 63 1013.3
20260904040011 84 124 2.0 7.0 0.00 0.00 0.00 62 1013.3
20260904035505 84 138 1.0 8.0 0.00 0.00 0.00 63 1013.4
20260904035005 84 151 2.0 10.0 0.00 0.00 0.00 62 1013.3
20260904034509 84 207 2.0 10.0 0.00 0.00 0.00 63 1013.3
20260904033506 84 161 2.0 10.0 0.00 0.00 0.00 63 1013.4
20260904033009 84 194 3.0 7.0 0.00 0.00 0.00 65 1013.5
20260904032505 84 115 0.0 8.0 0.00 0.00 0.00 66 1013.5
20260904032004 84 132 1.0 8.0 0.00 0.00 0.00 66 1013.4
20260904031006 84 134 2.0 10.0 0.00 0.00 0.00 65 1013.3
20260904030505 84 130 1.0 8.0 0.00 0.00 0.00 65 1013.3
20260904030012 85 133 1.0 10.0 0.00 0.00 0.00 65 1013.3
20260904025506 85 186 2.0 10.0 0.00 0.00 0.00 65 1013.3
20260904025005 85 132 1.0 8.0 0.00 0.00 0.00 65 1013.2
20260904024508 85 134 2.0 8.0 0.00 0.00 0.00 65 1012.9
20260904023505 85 160 1.0 7.0 0.00 0.00 0.00 65 1012.9
20260904023009 85 160 1.0 8.0 0.00 0.00 0.00 65 1012.8
20260904022506 85 154 1.0 8.0 0.00 0.00 0.00 65 1012.7
20260904021508 85 128 1.0 8.0 0.00 0.00 0.00 65 1012.6
20260904021006 85 163 0.0 11.0 0.00 0.00 0.00 65 1012.5
20260904020505 86 136 1.0 8.0 0.00 0.00 0.00 65 1012.4
20260904020011 86 112 2.0 9.0 0.00 0.00 0.00 64 1012.3
20260904015505 86 93 3.0 8.0 0.00 0.00 0.00 63 1012.2
20260904015004 86 116 1.0 11.0 0.00 0.00 0.00 62 1012.1
20260904014507 87 155 2.0 11.0 0.00 0.00 0.00 62 1012.1
20260904014005 87 126 1.0 9.0 0.00 0.00 0.00 61 1012.0
20260904013008 87 96 1.0 11.0 0.00 0.00 0.00 61 1011.8
20260904012504 87 141 1.0 10.0 0.00 0.00 0.00 61 1011.8
20260904012004 87 109 1.0 10.0 0.00 0.00 0.00 60 1011.7
20260904011508 88 133 1.0 7.0 0.00 0.00 0.00 60 1011.7
20260904010505 88 191 0.0 9.0 0.00 0.00 0.00 60 1011.6
20260904005504 88 119 2.0 7.0 0.00 0.00 0.00 60 1011.5
20260904005004 88 138 1.0 7.0 0.00 0.00 0.00 59 1011.5
20260904004508 89 167 1.0 8.0 0.00 0.00 0.00 59 1011.4
20260904003504 89 139 1.0 7.0 0.00 0.00 0.00 59 1011.5
20260904003007 89 138 1.0 10.0 0.00 0.00 0.00 59 1011.4
20260904002504 89 155 1.0 10.0 0.00 0.00 0.00 59 1011.4
20260904002005 89 127 1.0 9.0 0.00 0.00 0.00 59 1011.3
20260904001508 89 101 1.0 9.0 0.00 0.00 0.00 59 1011.3
20260904001005 90 111 1.0 8.0 0.00 0.00 0.00 59 1011.2
20260904000504 90 118 1.0 6.0 0.00 0.00 0.00 58 1011.2
20260904000009 90 92 1.0 7.0 0.00 0.00 0.00 58 1011.2
20260903235504 90 114 2.0 10.0 0.00 0.00 0.00 58 1011.1
20260903235004 91 152 3.0 10.0 0.00 0.00 0.00 58 1011.0
20260903234509 91 119 1.0 8.0 0.00 0.00 0.00 59 1011.0
20260903233505 91 169 1.0 9.0 0.00 0.00 0.00 59 1011.1
20260903232504 91 98 2.0 12.0 0.00 0.00 0.00 58 1010.9
20260903232005 91 136 3.0 12.0 0.00 0.00 0.00 58 1010.9
20260903231508 91 119 2.0 8.0 0.00 0.00 0.00 58 1010.8
20260903230504 91 184 3.0 12.0 0.00 0.00 0.00 59 1010.8
20260903230013 91 103 2.0 12.0 0.00 0.00 0.00 59 1010.7
20260903225504 91 121 5.0 10.0 0.00 0.00 0.00 59 1010.8
20260903225004 91 132 2.0 11.0 0.00 0.00 0.00 59 1010.9
20260903224508 91 108 3.0 10.0 0.00 0.00 0.00 58 1010.7
20260903223504 92 142 2.0 7.0 0.00 0.00 0.00 58 1010.9
20260903223008 92 101 1.0 8.0 0.00 0.00 0.00 57 1010.8
20260903222504 92 96 3.0 10.0 0.00 0.00 0.00 56 1010.8
20260903221507 92 87 1.0 9.0 0.00 0.00 0.00 56 1010.8
20260903221004 92 126 1.0 9.0 0.00 0.00 0.00 57 1010.9
20260903220504 93 126 2.0 9.0 0.00 0.00 0.00 56 1010.9
20260903220011 92 103 1.0 9.0 0.00 0.00 0.00 57 1010.8
20260903215504 93 78 1.0 11.0 0.00 0.00 0.00 56 1010.9
20260903215004 94 136 3.0 10.0 0.00 0.00 0.00 55 1010.9
20260903214005 93 167 2.0 9.0 0.00 0.00 0.00 56 1011.0
20260903213506 93 121 2.0 11.0 0.00 0.00 0.00 57 1010.9
20260903213009 92 127 2.0 12.0 0.00 0.00 0.00 58 1011.0
20260903212505 93 105 2.0 12.0 0.00 0.00 0.00 58 1011.1
20260903212004 93 199 3.0 9.0 0.00 0.00 0.00 57 1011.2
20260903211508 93 127 1.0 8.0 0.00 0.00 0.00 58 1011.2
20260903211004 93 128 2.0 10.0 0.00 0.00 0.00 57 1011.2
20260903210506 93 122 3.0 10.0 0.00 0.00 0.00 56 1011.3
20260903205503 93 128 2.0 10.0 0.00 0.00 0.00 57 1011.4
20260903205004 93 210 1.0 13.0 0.00 0.00 0.00 57 1011.4
20260903204508 93 88 2.0 10.0 0.00 0.00 0.00 57 1011.6
20260903203503 91 190 1.0 11.0 0.00 0.00 0.00 61 1011.7
20260903203007 91 173 4.0 11.0 0.00 0.00 0.00 60 1011.8
20260903202504 92 154 2.0 10.0 0.00 0.00 0.00 59 1011.8
20260903201508 93 123 2.0 14.0 0.00 0.00 0.00 58 1012.0
20260903200503 92 234 2.0 9.0 0.00 0.00 0.00 60 1012.0
20260903194507 91 144 2.0 12.0 0.00 0.00 0.00 61 1012.1
20260903194003 90 163 3.0 12.0 0.00 0.00 0.00 62 1012.1
20260903193504 91 175 2.0 8.0 0.00 0.00 0.00 62 1012.1
20260903193007 91 129 2.0 9.0 0.00 0.00 0.00 62 1012.3
20260903192503 91 106 2.0 10.0 0.00 0.00 0.00 62 1012.3
20260903192004 91 261 3.0 11.0 0.00 0.00 0.00 62 1012.4
20260903191506 91 106 2.0 12.0 0.00 0.00 0.00 63 1012.4
20260903191004 91 227 2.0 12.0 0.00 0.00 0.00 62 1012.6
20260903190011 92 176 4.0 14.0 0.00 0.00 0.00 61 1012.7
20260903185003 92 207 5.0 10.0 0.00 0.00 0.00 61 1012.8
20260903184508 92 169 3.0 11.0 0.00 0.00 0.00 62 1012.8
20260903183503 90 123 4.0 10.0 0.00 0.00 0.00 65 1013.0
20260903183006 90 172 0.0 9.0 0.00 0.00 0.00 65 1013.0
20260903182504 90 187 2.0 8.0 0.00 0.00 0.00 64 1013.0
20260903182003 91 146 3.0 11.0 0.00 0.00 0.00 63 1013.1
20260903181506 90 213 1.0 11.0 0.00 0.00 0.00 63 1013.2
20260903181003 90 165 3.0 10.0 0.00 0.00 0.00 62 1013.2
20260903180008 90 221 1.0 9.0 0.00 0.00 0.00 64 1013.4
20260903175502 90 215 3.0 9.0 0.00 0.00 0.00 64 1013.4
20260903175003 89 133 1.0 8.0 0.00 0.00 0.00 65 1013.4
20260903174506 89 200 1.0 9.0 0.00 0.00 0.00 65 1013.5
20260903174003 89 175 2.0 10.0 0.00 0.00 0.00 66 1013.5
20260903173503 88 153 3.0 13.0 0.00 0.00 0.00 66 1013.6
20260903173007 88 213 3.0 14.0 0.00 0.00 0.00 67 1013.7
20260903172502 89 226 2.0 9.0 0.00 0.00 0.00 65 1013.8
20260903171506 89 154 2.0 9.0 0.00 0.00 0.00 66 1013.9
20260903171003 88 173 5.0 10.0 0.00 0.00 0.00 67 1013.8
20260903170503 88 152 3.0 8.0 0.00 0.00 0.00 68 1013.9
20260903170008 88 102 1.0 8.0 0.00 0.00 0.00 68 1013.9
20260903165504 87 175 1.0 8.0 0.00 0.00 0.00 69 1013.8
20260903165003 87 187 2.0 9.0 0.00 0.00 0.00 68 1013.9
20260903164506 87 249 2.0 9.0 0.00 0.00 0.00 69 1013.9
20260903164003 86 101 2.0 8.0 0.00 0.00 0.00 70 1013.9
20260903162503 86 177 1.0 11.0 0.00 0.00 0.00 70 1014.0
20260903162003 86 127 2.0 11.0 0.00 0.00 0.00 71 1014.0
20260903161506 86 175 1.0 8.0 0.00 0.00 0.00 71 1014.1
20260903161002 85 99 2.0 9.0 0.00 0.00 0.00 72 1014.0
20260903160503 85 123 1.0 9.0 0.00 0.00 0.00 73 1014.0
20260903160007 85 172 1.0 7.0 0.00 0.00 0.00 72 1014.0
20260903155502 85 144 2.0 7.0 0.00 0.00 0.00 73 1014.0
20260903155002 85 128 1.0 7.0 0.00 0.00 0.00 73 1014.0
20260903154505 85 211 1.0 5.0 0.00 0.00 0.00 73 1013.9
20260903154002 85 218 1.0 4.0 0.00 0.00 0.00 74 1013.9
20260903153502 84 218 0.0 6.0 0.00 0.00 0.00 74 1013.9
20260903152502 84 101 2.0 9.0 0.00 0.00 0.00 75 1013.9
20260903152002 84 85 1.0 7.0 0.00 0.00 0.00 75 1013.9
20260903151506 83 110 1.0 6.0 0.00 0.00 0.00 76 1014.0
20260903150007 83 159 2.0 8.0 0.00 0.00 0.00 75 1014.0
20260903145502 83 118 1.0 7.0 0.00 0.00 0.00 76 1014.0
20260903144506 82 123 2.0 7.0 0.00 0.00 0.00 77 1014.0
20260903144001 82 113 0.0 9.0 0.00 0.00 0.00 77 1014.0
20260903143502 82 122 2.0 9.0 0.00 0.00 0.00 77 1014.1
20260903143006 82 95 2.0 7.0 0.00 0.00 0.00 77 1014.1
20260903142501 82 126 1.0 5.0 0.00 0.00 0.00 77 1014.0
20260903141505 81 106 1.0 5.0 0.00 0.00 0.00 77 1014.0
20260903141002 81 123 0.0 6.0 0.00 0.00 0.00 77 1014.0
20260903140501 81 138 1.0 5.0 0.00 0.00 0.00 77 1014.1
20260903140007 81 130 1.0 6.0 0.00 0.00 0.00 76 1014.1
20260903135501 82 134 1.0 4.0 0.00 0.00 0.00 76 1014.1
20260903135002 82 134 1.0 4.0 0.00 0.00 0.00 76 1013.9
20260903134001 81 136 1.0 7.0 0.00 0.00 0.00 76 1013.9
20260903133502 81 127 1.0 7.0 0.00 0.00 0.00 76 1013.9
20260903133005 81 173 0.0 4.0 0.00 0.00 0.00 75 1013.9
20260903132001 81 172 0.0 3.0 0.00 0.00 0.00 75 1013.8
20260903131002 80 173 0.0 5.0 0.00 0.00 0.00 76 1013.8
20260903130501 80 172 0.0 5.0 0.00 0.00 0.00 76 1013.8
20260903130007 80 172 0.0 0.0 0.00 0.00 0.00 78 1013.8
20260903125502 79 173 0.0 0.0 0.00 0.00 0.00 78 1013.9
20260903125001 79 173 0.0 0.0 0.00 0.00 0.00 80 1013.8
20260903124505 78 172 0.0 0.0 0.00 0.00 0.00 81 1013.7
20260903124001 78 173 0.0 0.0 0.00 0.00 0.00 81 1013.7
20260903123502 78 173 0.0 0.0 0.00 0.00 0.00 81 1013.5
20260903123005 77 173 0.0 0.0 0.00 0.00 0.00 81 1013.6
20260903122503 77 173 0.0 0.0 0.00 0.00 0.00 81 1013.6
20260903122001 77 173 0.0 0.0 0.00 0.00 0.00 81 1013.5
20260903121505 77 173 0.0 0.0 0.00 0.00 0.00 81 1013.5
20260903121002 78 172 0.0 0.0 0.00 0.00 0.00 81 1013.4
20260903120503 78 173 0.0 0.0 0.00 0.00 0.00 80 1013.3
20260903120006 78 173 0.0 0.0 0.00 0.00 0.00 80 1013.3
20260903115500 78 173 0.0 0.0 0.00 0.00 0.00 80 1013.2
20260903115001 78 173 0.0 0.0 0.00 0.00 0.00 79 1013.2
20260903114503 78 172 0.0 0.0 0.00 0.00 0.00 79 1013.3
20260903114001 78 173 0.0 0.0 0.00 0.00 0.00 79 1013.3
20260903113501 79 172 0.0 1.0 0.00 0.00 0.00 79 1013.3
20260903112501 79 173 0.0 0.0 0.00 0.00 0.00 78 1013.3
20260903112000 79 173 0.0 0.0 0.00 0.00 0.00 78 1013.3
20260903111503 79 172 0.0 0.0 0.00 0.00 0.00 77 1013.2
20260903111000 79 173 0.0 0.0 0.00 0.00 0.00 77 1013.1
20260903110500 79 173 0.0 0.0 0.00 0.00 0.00 77 1013.0
20260903105501 80 173 0.0 0.0 0.00 0.00 0.00 76 1012.9
20260903105001 80 173 0.0 0.0 0.00 0.00 0.00 76 1012.9
20260903104504 80 173 0.0 3.0 0.00 0.00 0.00 76 1013.0
20260903104001 81 173 0.0 3.0 0.00 0.00 0.00 75 1013.0
20260903103501 81 172 1.0 3.0 0.00 0.00 0.00 75 1013.0
20260903103005 81 172 0.0 1.0 0.00 0.00 0.00 75 1013.1
20260903102502 81 173 0.0 1.0 0.00 0.00 0.00 76 1013.2
20260903102001 81 172 0.0 1.0 0.00 0.00 0.00 76 1013.2
20260903101504 80 172 0.0 1.0 0.00 0.00 0.00 76 1013.2
20260903101001 80 173 0.0 0.0 0.00 0.00 0.00 76 1013.2
20260903100501 80 173 0.0 0.0 0.00 0.00 0.00 76 1013.1
20260903100006 80 173 0.0 1.0 0.00 0.00 0.00 76 1013.1
20260903095501 80 172 0.0 1.0 0.00 0.00 0.00 76 1013.1
20260903095001 80 173 0.0 2.0 0.00 0.00 0.00 76 1013.2
20260903094002 80 172 0.0 0.0 0.00 0.00 0.00 77 1013.1
20260903093501 80 173 0.0 0.0 0.00 0.00 0.00 77 1013.1
20260903093005 80 173 0.0 0.0 0.00 0.00 0.00 77 1013.1
20260903092501 80 172 0.0 0.0 0.00 0.00 0.00 77 1013.1